Location: Bogis-Bossey
(46.3500°N, 6.1667°E)
Time: 00:05:46
(UTC+00:00)

Cosmos 1513 Rocket - Pass Details

Date: 17 August 2022
Orbit: 940 x 1007 km, 82.9° (Epoch: 25 September)

Event Time Altitude Azimuth Distance (km) Brightness Sun altitude
Rises 21:38:35 0° 351° (N) 3,717 8.6 -24.6°
Reaches altitude 10° 21:41:06 10° 351° (N) 2,772 7.8 -24.8°
Maximum altitude 21:47:30 88° 266° (W) 1,011 4.5 -25.4°
Enters shadow 21:49:00 56° 176° (S) 1,180 4.5 -25.5°
